COSMOS 2460 (732)

Last updated on Nov. 12, 2019, 4:19 a.m. UTC

1 36402U 10007C   19314.96115177 -.00000060  00000-0  10000-3 0  9999
2 36402  65.7956  35.1712 0001849 184.1536 101.6019  2.13101356 75455
UTC
Height (km)
Latitude
Longitude
Inclination
Orbital Period
UTC large
Height (km)
Speed (km/s)
/
Latitude / Longitude
Inclination (degrees)
Orbital Period (minutes)
Azimuth
Elevation
Range (km)
Doppler Factor
iOS Compass Heading
iOS Angle

Next 30 passes for location: Hong Kong

Rise time Rise Azimuth (degrees) Set time Set Azimuth (degrees) Duration Max altitude (degrees)

No matching passes for this satellites